Location: ???????
(55.7027°N, 37.3832°E)
Time: 21:38:00
(UTC+00:00)

Spot 1 - Pass Details

Date: 14 April 2026
Orbit: 566 x 747 km, 98.7° (Epoch: 16 May)

Event Time Altitude Azimuth Distance (km) Brightness Sun altitude
Rises 22:55:39 0° 17° (NNE) 2,781 8.9 -22.3°
Reaches altitude 10° 22:57:47 10° 18° (NNE) 1,879 7.7 -22.1°
Maximum altitude 23:01:50 84° 107° (ESE) 583 3.8 -21.9°
Enters shadow 23:02:11 73° 175° (S) 605 3.7 -21.9°
